W5JXT Weather Reports


Display with metric or nautical units.
time (UTC)temp
F
wind
direction
speed
MPH
gust
MPH
rain 1hr
in
rain 24hr
in
rain mn
in
humidity
%
barometer
mb
20260507144500 50 59 0.0 5.0 0.00 0.00 0.00 66 1023.4
20260507143000 49 46 0.0 5.0 0.00 0.00 0.00 67 1023.5
20260507141501 48 46 0.0 4.0 0.00 0.00 0.00 68 1023.7
20260507140001 48 16 0.0 6.0 0.00 0.00 0.00 70 1023.7
20260507134501 48 350 1.0 8.0 0.00 0.00 0.00 70 1023.7
20260507133000 47 39 0.0 3.0 0.00 0.00 0.00 71 1023.7
20260507130002 46 39 0.0 0.0 0.00 0.00 0.00 73 1023.5
20260507124459 45 342 0.0 0.0 0.00 0.00 0.00 73 1023.4
20260507123001 44 24 0.0 1.0 0.00 0.00 0.00 75 1023.1
20260507121459 44 42 0.0 0.0 0.00 0.00 0.00 75 1023.2
20260507120002 44 13 0.0 0.0 0.00 0.00 0.00 75 1023.2
20260507114459 44 314 0.0 0.0 0.00 0.00 0.00 74 1023.0
20260507113001 45 314 0.0 0.0 0.00 0.00 0.00 73 1022.9
20260507104500 45 324 0.0 0.0 0.00 0.00 0.00 73 1022.8
20260507102959 45 27 0.0 0.0 0.00 0.00 0.00 73 1022.9
20260507100001 46 304 0.0 0.0 0.00 0.00 0.00 71 1022.8
20260507094459 47 307 0.0 0.0 0.00 0.00 0.00 70 1022.6
20260507092959 47 293 0.0 0.0 0.00 0.00 0.00 70 1022.6
20260507091459 47 22 0.0 1.0 0.00 0.00 0.00 70 1022.6
20260507090001 47 13 0.0 5.0 0.00 0.00 0.00 69 1022.4
20260507082959 48 323 0.0 7.0 0.00 0.00 0.00 68 1022.0
20260507081500 48 347 0.0 6.0 0.00 0.00 0.00 68 1022.0
20260507080001 48 290 0.0 7.0 0.00 0.00 0.00 68 1022.1
20260507074459 48 91 0.0 6.0 0.00 0.00 0.00 68 1022.2
20260507073000 49 295 1.0 9.0 0.00 0.00 0.00 67 1022.2
20260507071459 49 330 1.0 11.0 0.00 0.00 0.00 67 1022.2
20260507064501 49 29 1.0 11.0 0.00 0.00 0.00 66 1021.9
20260507063001 49 266 1.0 10.0 0.00 0.00 0.00 65 1022.0
20260507060000 50 269 3.0 13.0 0.00 0.00 0.00 64 1021.7
20260507054500 50 209 2.0 13.0 0.00 0.00 0.00 63 1021.5
20260507053000 50 351 2.0 10.0 0.00 0.00 0.00 63 1021.4
20260507051500 50 347 2.0 14.0 0.00 0.00 0.00 63 1021.2
20260507044500 52 34 5.0 18.0 0.00 0.00 0.00 62 1020.1
20260507043000 53 16 5.0 24.0 0.00 0.00 0.00 61 1019.7
20260507041500 54 51 8.0 21.0 0.00 0.00 0.00 59 1019.4
20260507040002 56 19 10.0 25.0 0.00 0.00 0.00 57 1019.1
20260507034501 57 281 7.0 20.0 0.00 0.00 0.00 55 1018.2
20260507033000 60 291 8.0 27.0 0.00 0.00 0.00 49 1017.4
20260507031502 66 10 3.0 16.0 0.00 0.00 0.00 35 1016.7
20260507030003 68 251 0.0 1.0 0.00 0.00 0.00 22 1015.0
20260507024501 70 219 0.0 3.0 0.00 0.00 0.00 20 1014.6
20260507023002 70 226 0.0 2.0 0.00 0.00 0.00 20 1014.3
20260507021501 71 246 0.0 1.0 0.00 0.00 0.00 20 1014.2
20260507020001 72 231 0.0 1.0 0.00 0.00 0.00 17 1013.9
20260507014500 74 211 0.0 0.0 0.00 0.00 0.00 16 1013.7
20260507013000 75 329 0.0 2.0 0.00 0.00 0.00 15 1013.5
20260507011459 76 231 0.0 5.0 0.00 0.00 0.00 14 1013.2
20260507010003 77 254 0.0 4.0 0.00 0.00 0.00 13 1013.0
20260507004501 78 285 1.0 5.0 0.00 0.00 0.00 13 1012.7
20260507001501 80 264 0.0 1.0 0.00 0.00 0.00 13 1012.2
20260507000003 81 323 0.0 4.0 0.00 0.00 0.00 14 1012.2
20260506224500 80 232 0.0 5.0 0.00 0.00 0.00 19 1011.9
20260506223000 80 210 1.0 6.0 0.00 0.00 0.00 19 1011.9
20260506221459 79 269 1.0 8.0 0.00 0.00 0.00 20 1012.0
20260506220003 79 88 2.0 7.0 0.00 0.00 0.00 21 1012.2
20260506214502 78 238 1.0 7.0 0.00 0.00 0.00 22 1012.3
20260506213000 79 89 1.0 6.0 0.00 0.00 0.00 22 1012.5
20260506211502 78 275 2.0 9.0 0.00 0.00 0.00 24 1012.7
20260506204501 77 153 2.0 9.0 0.00 0.00 0.00 24 1013.0
20260506203000 76 146 1.0 7.0 0.00 0.00 0.00 24 1013.3
20260506201501 76 155 2.0 8.0 0.00 0.00 0.00 25 1013.5
20260506200002 76 163 2.0 10.0 0.00 0.00 0.00 26 1013.7
20260506194500 75 18 1.0 6.0 0.00 0.00 0.00 28 1013.9
20260506191500 73 55 1.0 5.0 0.00 0.00 0.00 27 1014.2
20260506184459 73 49 1.0 4.0 0.00 0.00 0.00 32 1014.6
20260506183000 72 78 1.0 7.0 0.00 0.00 0.00 32 1014.9
20260506181500 72 219 0.0 3.0 0.00 0.00 0.00 33 1015.0
20260506174459 69 51 1.0 4.0 0.00 0.00 0.00 38 1015.4
20260506173000 68 96 0.0 4.0 0.00 0.00 0.00 40 1015.5
20260506171459 67 53 1.0 4.0 0.00 0.00 0.00 40 1015.7
20260506170000 66 22 0.0 7.0 0.00 0.00 0.00 45 1015.7
20260506164500 65 58 0.0 4.0 0.00 0.00 0.00 46 1015.9
20260506162959 65 101 0.0 1.0 0.00 0.00 0.00 48 1016.0
20260506161459 63 70 0.0 4.0 0.00 0.00 0.00 51 1016.1
20260506155959 62 88 0.0 2.0 0.00 0.00 0.00 53 1016.1
20260506154459 61 13 0.0 4.0 0.00 0.00 0.00 54 1016.2
20260506152959 60 70 0.0 3.0 0.00 0.00 0.00 56 1016.3
20260506151459 58 1 0.0 4.0 0.00 0.00 0.00 58 1016.4